| time (UTC) | temp C | wind direction | speed KPH | gust KPH | rain 1hr cm | rain 24hr cm | rain mn cm | humidity % | barometer mb |
| 20260505041217 | 16 | 270 | 6.4 | 11.3 | 0.00 | 0.48 | 0.48 | 66 | 1000.5 |
| 20260505040217 | 16 | 270 | 9.7 | 14.5 | 0.00 | 0.48 | 0.48 | 69 | 1000.3 |
| 20260505035237 | 16 | 248 | 6.4 | 6.4 | 0.00 | 0.48 | 0.48 | 71 | 1000.3 |
| 20260505034217 | 16 | 0 | 9.7 | 14.5 | 0.00 | 0.48 | 0.48 | 70 | 1000.0 |
| 20260505033217 | 16 | 0 | 6.4 | 8.0 | 0.00 | 0.48 | 0.48 | 70 | 1000.0 |
| 20260505032217 | 16 | 225 | 8.0 | 11.3 | 0.00 | 0.48 | 0.48 | 70 | 999.7 |
| 20260505031217 | 16 | 248 | 4.8 | 11.3 | 0.00 | 0.48 | 0.48 | 69 | 999.7 |
| 20260505030217 | 16 | 0 | 8.0 | 12.9 | 0.00 | 0.48 | 0.48 | 70 | 999.6 |
| 20260505025217 | 16 | 0 | 9.7 | 17.7 | 0.00 | 0.48 | 0.48 | 70 | 999.8 |
| 20260505024217 | 16 | 0 | 11.3 | 19.3 | 0.00 | 0.48 | 0.48 | 71 | 999.7 |
| 20260505023217 | 16 | 0 | 11.3 | 16.1 | 0.00 | 0.48 | 0.48 | 71 | 999.3 |
| 20260505022238 | 16 | 225 | 9.7 | 14.5 | 0.00 | 0.48 | 0.48 | 71 | 998.9 |
| 20260505021217 | 16 | 0 | 9.7 | 14.5 | 0.00 | 0.48 | 0.48 | 71 | 998.6 |
| 20260505020217 | 17 | 0 | 9.7 | 14.5 | 0.00 | 0.48 | 0.48 | 71 | 998.2 |
| 20260505015217 | 17 | 0 | 11.3 | 17.7 | 0.00 | 0.48 | 0.48 | 70 | 998.1 |
| 20260505014217 | 17 | 225 | 9.7 | 14.5 | 0.00 | 0.48 | 0.48 | 70 | 997.9 |
| 20260505013217 | 17 | 225 | 12.9 | 16.1 | 0.00 | 0.48 | 0.48 | 70 | 997.7 |
| 20260505012217 | 17 | 0 | 14.5 | 24.1 | 0.00 | 0.48 | 0.48 | 72 | 997.8 |
| 20260505011237 | 17 | 203 | 14.5 | 22.5 | 0.00 | 0.48 | 0.48 | 73 | 997.5 |
| 20260505010217 | 17 | 203 | 12.9 | 20.9 | 0.00 | 0.48 | 0.48 | 74 | 997.1 |
| 20260505005217 | 17 | 180 | 11.3 | 19.3 | 0.00 | 0.48 | 0.48 | 74 | 997.3 |
| 20260505004237 | 17 | 180 | 9.7 | 19.3 | 0.00 | 0.48 | 0.48 | 73 | 997.1 |
| 20260505003217 | 17 | 180 | 9.7 | 17.7 | 0.00 | 0.48 | 0.48 | 74 | 996.1 |
| 20260505002217 | 17 | 203 | 9.7 | 14.5 | 0.00 | 0.48 | 0.48 | 76 | 996.0 |
| 20260505001217 | 17 | 203 | 3.2 | 4.8 | 0.03 | 0.48 | 0.48 | 77 | 996.3 |
| 20260505000218 | 17 | 158 | 3.2 | 4.8 | 0.10 | 0.48 | 0.48 | 78 | 996.1 |
| 20260504235217 | 16 | 180 | 3.2 | 4.8 | 0.33 | 0.48 | 0.48 | 78 | 996.2 |
| 20260504234217 | 16 | 158 | 1.6 | 4.8 | 0.46 | 0.48 | 0.48 | 76 | 996.0 |
| 20260504233217 | 17 | 113 | 4.8 | 6.4 | 0.48 | 0.48 | 0.48 | 74 | 996.1 |
| 20260504232217 | 17 | 158 | 9.7 | 12.9 | 0.48 | 0.48 | 0.48 | 74 | 996.7 |
| 20260504231217 | 18 | 180 | 8.0 | 11.3 | 0.46 | 0.46 | 0.46 | 72 | 996.6 |
| 20260504230217 | 18 | 113 | 1.6 | 3.2 | 0.30 | 0.30 | 0.30 | 70 | 997.0 |
| 20260504225216 | 20 | 293 | 3.2 | 4.8 | 0.15 | 0.15 | 0.15 | 62 | 996.8 |
| 20260504224217 | 22 | 270 | 14.5 | 22.5 | 0.03 | 0.03 | 0.03 | 54 | 997.3 |
| 20260504223217 | 24 | 225 | 12.9 | 20.9 | 0.00 | 0.00 | 0.00 | 44 | 996.8 |
| 20260504222217 | 25 | 0 | 9.7 | 19.3 | 0.00 | 0.00 | 0.00 | 36 | 996.5 |
| 20260504221237 | 26 | 0 | 12.9 | 19.3 | 0.00 | 0.00 | 0.00 | 32 | 996.5 |
| 20260504220217 | 26 | 0 | 14.5 | 19.3 | 0.00 | 0.00 | 0.00 | 31 | 996.6 |
| 20260504215217 | 26 | 0 | 14.5 | 24.1 | 0.00 | 0.00 | 0.00 | 33 | 996.5 |
| 20260504214237 | 26 | 0 | 19.3 | 32.2 | 0.00 | 0.00 | 0.00 | 35 | 996.8 |
| 20260504213217 | 25 | 0 | 19.3 | 24.1 | 0.00 | 0.00 | 0.00 | 34 | 996.9 |
| 20260504212258 | 26 | 203 | 11.3 | 14.5 | 0.00 | 0.00 | 0.00 | 36 | 996.9 |
| 20260504211217 | 26 | 0 | 17.7 | 29.0 | 0.00 | 0.00 | 0.00 | 35 | 997.2 |
| 20260504210237 | 26 | 0 | 16.1 | 22.5 | 0.00 | 0.00 | 0.00 | 34 | 997.4 |
| 20260504205216 | 26 | 248 | 19.3 | 37.0 | 0.00 | 0.00 | 0.00 | 30 | 997.4 |
| 20260504204216 | 26 | 248 | 12.9 | 17.7 | 0.00 | 0.00 | 0.00 | 29 | 997.6 |
| 20260504203217 | 27 | 270 | 8.0 | 14.5 | 0.00 | 0.00 | 0.00 | 30 | 997.5 |
| 20260504202217 | 27 | 0 | 14.5 | 24.1 | 0.00 | 0.00 | 0.00 | 29 | 997.6 |
| 20260504201216 | 27 | 0 | 17.7 | 22.5 | 0.00 | 0.00 | 0.00 | 30 | 997.7 |
| 20260504200216 | 27 | 270 | 19.3 | 27.4 | 0.00 | 0.00 | 0.00 | 28 | 997.9 |
| 20260504195216 | 26 | 270 | 11.3 | 17.7 | 0.00 | 0.00 | 0.00 | 30 | 998.1 |
| 20260504194237 | 26 | 225 | 12.9 | 19.3 | 0.00 | 0.00 | 0.00 | 29 | 998.3 |
| 20260504193237 | 26 | 248 | 16.1 | 22.5 | 0.00 | 0.00 | 0.00 | 28 | 998.4 |
| 20260504192218 | 26 | 248 | 27.4 | 38.6 | 0.00 | 0.00 | 0.00 | 28 | 998.5 |
| 20260504191216 | 26 | 0 | 24.1 | 32.2 | 0.00 | 0.00 | 0.00 | 30 | 998.7 |
| 20260504190216 | 26 | 203 | 19.3 | 27.4 | 0.00 | 0.00 | 0.00 | 32 | 998.8 |
| 20260504185216 | 26 | 248 | 16.1 | 24.1 | 0.00 | 0.00 | 0.00 | 30 | 998.8 |
| 20260504184216 | 26 | 0 | 17.7 | 27.4 | 0.00 | 0.00 | 0.00 | 31 | 999.0 |
| 20260504183216 | 25 | 248 | 16.1 | 24.1 | 0.00 | 0.00 | 0.00 | 32 | 998.9 |
| 20260504182216 | 25 | 248 | 17.7 | 24.1 | 0.00 | 0.00 | 0.00 | 31 | 998.9 |
| 20260504181216 | 25 | 225 | 19.3 | 32.2 | 0.00 | 0.00 | 0.00 | 31 | 999.1 |
| 20260504180216 | 25 | 225 | 16.1 | 24.1 | 0.00 | 0.00 | 0.00 | 31 | 999.3 |
| 20260504175216 | 25 | 203 | 25.7 | 38.6 | 0.00 | 0.00 | 0.00 | 32 | 999.5 |
| 20260504174216 | 24 | 270 | 17.7 | 33.8 | 0.00 | 0.00 | 0.00 | 33 | 999.5 |
| 20260504173257 | 24 | 225 | 16.1 | 20.9 | 0.00 | 0.00 | 0.00 | 36 | 999.8 |
| 20260504172216 | 23 | 180 | 12.9 | 17.7 | 0.00 | 0.00 | 0.00 | 39 | 999.9 |
| 20260504171216 | 23 | 270 | 14.5 | 25.7 | 0.00 | 0.00 | 0.00 | 39 | 999.9 |
| 20260504170216 | 23 | 248 | 16.1 | 22.5 | 0.00 | 0.00 | 0.00 | 37 | 1000.3 |
| 20260504160216 | 22 | 0 | 12.9 | 17.7 | 0.00 | 0.00 | 0.00 | 41 | 1001.1 |
| 20260504150236 | 20 | 0 | 16.1 | 22.5 | 0.00 | 0.00 | 0.00 | 45 | 1001.7 |
| 20260504141216 | 17 | 0 | 14.5 | 25.7 | 0.00 | 0.00 | 0.00 | 54 | 1002.4 |
| 20260504140216 | 16 | 0 | 9.7 | 12.9 | 0.00 | 0.00 | 0.00 | 57 | 1002.4 |
| 20260504130216 | 13 | 0 | 8.0 | 9.7 | 0.00 | 0.00 | 0.00 | 70 | 1003.0 |
| 20260504120216 | 10 | 0 | 6.4 | 8.0 | 0.00 | 0.00 | 0.00 | 80 | 1002.9 |
| 20260504110238 | 8 | 225 | 3.2 | 3.2 | 0.00 | 0.00 | 0.00 | 81 | 1002.8 |
| 20260504100218 | 8 | 180 | 4.8 | 9.7 | 0.00 | 0.00 | 0.00 | 80 | 1003.0 |
| 20260504081218 | 9 | 225 | 1.6 | 3.2 | 0.00 | 0.00 | 0.00 | 75 | 1002.8 |
| 20260504080218 | 9 | 225 | 3.2 | 4.8 | 0.00 | 0.00 | 0.00 | 74 | 1002.8 |
| 20260504070217 | 11 | 225 | 3.2 | 4.8 | 0.00 | 0.00 | 0.00 | 70 | 1003.7 |
| 20260504060217 | 12 | 248 | 4.8 | 6.4 | 0.00 | 0.00 | 0.00 | 67 | 1004.3 |
| 20260504050217 | 13 | 0 | 6.4 | 9.7 | 0.00 | 0.00 | 0.00 | 65 | 1004.5 |
| 20260504045236 | 13 | 248 | 6.4 | 8.0 | 0.00 | 0.00 | 0.00 | 64 | 1004.5 |
| 20260504044215 | 13 | 0 | 6.4 | 9.7 | 0.00 | 0.00 | 0.00 | 63 | 1004.5 |
| 20260504043215 | 13 | 180 | 9.7 | 20.9 | 0.00 | 0.00 | 0.00 | 63 | 1004.4 |
| 20260504042236 | 13 | 180 | 8.0 | 14.5 | 0.00 | 0.00 | 0.00 | 62 | 1004.5 |